Regional Weather Roundup
Issued by NWS

Home | Current Version | Previous Version | Graphics & Text | Print | Product List | Glossary On
Versions: 1 2 3 4 5 6 7 8 9 10 11 12 13 14 15 16 17 18 19 20 21 22 23 24 25 26 27 28 29 30 31 32 33 34 35 36 37 38 39 40 41 42 43 44 45 46 47 48 49 50
000
ASUS43 KBIS 261910
RWRND

NORTH DAKOTA REGIONAL WEATHER ROUNDUP
NATIONAL WEATHER SERVICE BISMARCK ND
200 PM CDT FRI MAY 26 2017

NOTE: "FAIR" INDICATES FEW OR NO CLOUDS BELOW 12,000 FEET WITH NO
SIGNIFICANT WEATHER AND/OR OBSTRUCTIONS TO VISIBILITY.


NDZ001>003-009>011-017-262000-
NORTHWEST NORTH DAKOTA

CITY           SKY/WX    TMP DP  RH WIND       PRES   REMARKS
WILLISTON      CLOUDY    65  36  34 NW20G28   29.77S
MINOT          CLOUDY    60  42  51 W25G32    29.72S
MINOT AFB      CLOUDY    59  42  52 NW20      29.71R
$$

NDZ018>021-031>035-040>046-262000-
SOUTHWEST NORTH DAKOTA

CITY           SKY/WX    TMP DP  RH WIND       PRES   REMARKS
BISMARCK       CLOUDY    65  40  39 NW21G28   29.77F
DICKINSON      FAIR      63  33  32 NW24G37   29.79S
GARRISON         N/A     60  41  49 W21G35    29.74S
HETTINGER ARPT PTSUNNY   63  36  36 NW20G31   29.85R
$$

NDZ004>008-012>016-024-026-027-054-262000-
NORTHEAST NORTH DAKOTA

CITY           SKY/WX    TMP DP  RH WIND       PRES   REMARKS
GRAND FORKS    PTSUNNY   68  46  45 W15G25    29.68R
GRND FRKS AFB  CLOUDY    64  45  49 W12       29.69R
DEVILS LAKE    CLOUDY    60  46  59 W24       29.71R
$$

NDZ022-023-025-028>030-036>039-047>053-262000-
SOUTHEAST NORTH DAKOTA

CITY           SKY/WX    TMP DP  RH WIND       PRES   REMARKS
FARGO          PTSUNNY   71  45  39 W18G24    29.70S
JAMESTOWN      CLOUDY    59  43  55 W15G24    29.75R
$$




USA.gov is the U.S. government's official web portal to all federal, state and local government web resources and services.